Regional Weather Roundup
Issued by NWS Jackson, KY

Home | Current Version | Previous Version | Text Only | Print | Product List | Glossary Off
Versions: 1 2 3 4 5 6 7 8 9 10 11 12 13 14 15 16 17 18 19 20 21 22 23 24 25 26 27 28

000
ASUS43 KJKL 231910
RWRJKL

EAST KENTUCKY HOURLY WEATHER ROUNDUP
NATIONAL WEATHER SERVICE JACKSON KY
200 PM EST THU FEB 23 2017

NOTE: "FAIR" INDICATES FEW OR NO CLOUDS BELOW 12,000 FEET WITH
NO SIGNIFICANT WEATHER AND/OR OBSTRUCTIONS TO VISIBILITY.

* THESE REPORTS ARE NOT UNDER NWS QUALITY CONTROL AND MAY NOT
  REPORT WEATHER SUCH AS PRECIPITATION AND FOG.

KYZ079-080-083-085-087-088-110-112-115-119-120-232000
...EASTERN KENTUCKY...

CITY           SKY/WX    TMP DP  RH WIND       PRES   REMARKS
JACKSON        CLOUDY    68  55  63 VRB3      29.84F
LONDON         CLOUDY    68  53  58 SW7       29.83F
SOMERSET*      CLOUDY    66  54  63 CALM      29.83F
MONTICELLO*    CLOUDY    68  57  68 VRB3      29.83F
WILLIAMSBURG*  CLOUDY    68  55  64 S6        29.83F
MIDDLESBORO*   PTSUNNY   68  56  64 SE6       29.85F
HARLAN APT*    CLOUDY    64  52  63 CALM      29.86F
PIKE CO APT*   CLOUDY    64  55  72 S3        29.85F
BIG SANDY APT* CLOUDY    67  56  66 CALM      29.85F
MOREHEAD APT*  CLOUDY    64  55  72 S7        29.85F
ASHLAND*       CLOUDY    64  59  82 SW9       29.80F
$$

KYZ035-036-041-042-044-050-067-078-099-232000
...CENTRAL KENTUCKY...

CITY           SKY/WX    TMP DP  RH WIND       PRES   REMARKS
MT STERLING*   CLOUDY    64  57  77 SW6       29.84F
FLEMING/MASON* PTSUNNY   64  57  79 S10       29.82F
DANVILLE*      CLOUDY    68  55  64 SW7       29.82F
LEXINGTON      CLOUDY    66  56  70 W7        29.81F
FRANKFORT      CLOUDY    67  55  65 SW9       29.79F
LOUISVILLE     CLOUDY    68  56  65 S8        29.77F
LEBANON*       CLOUDY    68  57  68 SW8       29.81F
GLASGOW*       CLOUDY    70  56  61 SW8       29.79F
BOWLING GREEN  PTSUNNY   71  57  61 S13       29.78F
$$

KYZ091>093-OHZ055-061-077-WVZ005-015-034-035-042-232000
...SOUTHERN OHIO/WEST VIRGINIA...

CITY           SKY/WX    TMP DP  RH WIND       PRES   REMARKS
COVINGTON      CLOUDY    69  56  62 SW9       29.76F
COLUMBUS       PTSUNNY   71  55  56 SW14      29.76F
DAYTON         PTSUNNY   67  55  65 SW13      29.75F
WILMINGTON     PTSUNNY   66  57  72 SW12      29.77F
HUNTINGTON     CLOUDY    65  56  72 S7        29.83F
CHARLESTON     CLOUDY    65  53  65 SW7       29.85F
PINEVILLE*     CLOUDY    63  51  63 MISG      29.93F
BECKLEY        CLOUDY    61  50  67 W6        29.89F
BLUEFIELD      CLOUDY    61  48  62 NW8       29.90F
LOGAN CO APT*  CLOUDY    61  55  82 CALM      29.87F
$$

VAZ002-007-008-TNZ017-027-036-066-071-232000
...SOUTHWEST VIRGINIA/EAST TENNESSEE...

CITY           SKY/WX    TMP DP  RH WIND       PRES   REMARKS
WISE*          CLOUDY    64  50  59 CALM      29.89F
JONESVILLE*      N/A    N/A N/A N/A N3        29.87F
ABINGDON*      PTSUNNY   70  52  52 SW8       29.87F
BRISTOL        MOSUNNY   70  50  49 VRB5      29.86F
MORRISTOWN*    CLEAR     70  54  56 NW5       29.84F
SEVIERVILLE*   CLEAR     70  52  52 VRB3      29.82F
KNOXVILLE      MOSUNNY   69  56  62 N6        29.83F
LAFOLLETTE*    CLEAR     66  55  68 CALM      29.87F
OAK RIDGE      SUNNY     68  53  58 CALM      29.85F
CROSSVILLE     CLOUDY    66  52  60 VRB7      29.86F
NASHVILLE      PTSUNNY   73  55  53 S14       29.79F
$$

...KEY TO REMARKS...
VSB - VISIBILITY IN MILES
WCI - WIND CHILL INDEX
HX  - HEAT INDEX

$$




USA.gov is the U.S. government's official web portal to all federal, state and local government web resources and services.